Miscellaneous Local Product
Issued by NWS Hastings, NE

Home | Current Version | Previous Version | Graphics & Text | Print | Product List | Glossary On
Versions: 1 2 3 4 5 6 7 8 9 10 11 12 13 14 15 16 17 18 19 20 21 22 23 24 25 26 27 28 29 30 31 32 33 34 35 36 37 38 39 40 41 42 43 44 45 46 47 48 49 50
257
AXUS43 KGID 262202
MISGRI

GID CWA HOURLY WEATHER ROUNDUP
NATIONAL WEATHER SERVICE HASTINGS NE
500 PM CDT TUE APR 26 2016

NOTE: "FAIR" INDICATES FEW OR NO CLOUDS BELOW 12,000 FEET WITH NO
SIGNIFICANT WEATHER AND/OR OBSTRUCTIONS TO VISIBILITY.

...SOUTH CENTRAL NEBRASKA...

CITY           SKY/WX    TMP DP  RH WIND       PRES   REMARKS
GRAND ISLAND   CLOUDY    69  52  54 E10       29.63F
HASTINGS       PTSUNNY   70  58  65 E8        29.60F
KEARNEY        MOSUNNY   70  54  56 E17       29.61F
ORD            CLOUDY    61  49  64 NE9       29.68R
YORK           CLOUDY    70  55  60 SE13      29.60F
AURORA         CLOUDY    71  52  50 E13G22    29.62F
LEXINGTON      CLOUDY    63  51  64 NE13      29.64F
HOLDREGE       CLOUDY    68  55  62 E13G20    29.60F
HEBRON         CLOUDY    74  63  67 E14G20    29.53F

...NEBRASKA PANHANDLE...

CITY           SKY/WX    TMP DP  RH WIND       PRES   REMARKS
CHADRON        CLOUDY    38  35  89 N12       29.83F WCI  30
ALLIANCE       CLOUDY    38  36  92 N16       29.77S FOG     WCI  29
SCOTTSBLUFF    CLOUDY    41  36  82 N13       29.80R
SIDNEY         CLOUDY    42  40  92 N9        29.76R FOG

...WESTERN AND NORTH CENTRAL NEBRASKA...

CITY           SKY/WX    TMP DP  RH WIND       PRES   REMARKS
VALENTINE      CLOUDY    43  39  86 NE10      29.79R
AINSWORTH      CLOUDY    45  41  88 NE9       29.78R
ONEILL         CLOUDY    55  45  69 NE16      29.74S
BROKEN BOW     CLOUDY    58  47  66 NE13      29.67F
IMPERIAL       CLOUDY    54  46  74 NE13      29.69F
NORTH PLATTE   CLOUDY    51  44  77 N12       29.70F
MCCOOK         MOSUNNY   66  52  60 NE13      29.62F

...EASTERN NEBRASKA...

CITY           SKY/WX    TMP DP  RH WIND       PRES   REMARKS
NORFOLK        CLOUDY    67  49  52 E17G23    29.66F
SO SIOUX CITY  MOSUNNY   68  53  58 E16G29    29.72F
TEKAMAH        MOSUNNY   72  56  57 E15       29.66F
COLUMBUS       CLOUDY    70  48  46 E18       29.64F
ALBION         CLOUDY    65  49  55 E16G25    29.67F
OMAHA EPPLEY   CLOUDY    73  55  53 E13G23    29.63F
OFFUTT AFB     SUNNY     72  58  61 E15G21    29.64F
MILLARD        PTSUNNY   73  55  53 E12       29.64F
LINCOLN        CLOUDY    73  56  54 E17G23    29.61F
NEBRASKA CITY  CLOUDY    73  60  63 E14       29.62F
BEATRICE       CLOUDY    71  59  64 E14       29.57F
FALLS CITY     CLOUDY    71  58  63 SE12      29.59F

...NORTHERN KANSAS...

CITY           SKY/WX    TMP DP  RH WIND       PRES   REMARKS
GOODLAND       CLOUDY    70  15  12 S15       29.60S
HILL CITY      PTSUNNY   79  38  22 E6        29.54F
NORTON         CLEAR     73  50  43 E7        29.56
PHILLIPSBURG   SUNNY     79  46  31 CALM      29.53F
SMITH CENTER   SUNNY     79  61  53 SE3       29.53F
BELOIT         SUNNY     79  63  57 E7        29.45F
HAYS           SUNNY     79  45  29 SW3       29.52F
RUSSELL        SUNNY     82  46  28 VRB5      29.50F
CONCORDIA      MOSUNNY   79  66  64 E8        29.48F
SALINA         CLOUDY    84  54  35 S10       29.47F
TOPEKA         TSTM      67  62  84 E10       29.58S



USA.gov is the U.S. government's official web portal to all federal, state and local government web resources and services.